User: anonymous   Login
Location: Theydon Bois
(51.6750°N, 0.1050°E)
Time: 16:43:23
(UTC+01:00)
Language:

Cosmos 2322 - Orbit

View from above orbital plane
View from above orbital plane
View from above satellite
View from above satellite

Ground track
Ground track

The orbit data is extracted from the following two-line orbital elements,

1 23704U 95058A   17294.93058441 -.00000189 +00000-0 -75051-4 0  9992
2 23704 070.9846 138.1453 0012609 265.8027 094.1653 14.13386678133546
Epoch (UTC): 21 October 2017 22:20:02
Eccentricity: 0.0012609
inclination: 70.9846°
perigee height: 838 km
apogee height: 857 km
right ascension of ascending node: 138.1453°
argument of perigee: 265.8027°
revolutions per day: 14.13386678
mean anomaly at epoch: 94.1653°
orbit number at epoch: 13354

The dashed part of the orbit path shows where the satellite is in the earth's shadow,  

DLR